Location: Unspecified
(35.6961°N, 0.0000°E)
Time: 18:44:45
(UTC+00:00)

Vanguard 3 - Pass Details

Date: 02 June 2019
Orbit: 508 x 3263 km, 33.3° (Epoch: 16 June)

Event Time Altitude Azimuth Distance (km) Brightness Sun altitude
Rises 17:00:26 0° 226° (SW) 2,641 10.3 24.0°
Reaches altitude 10° 17:02:53 10° 211° (SSW) 1,707 9.2 23.6°
Maximum altitude 17:05:53 24° 155° (SSE) 1,119 7.7 23.0°
Drops below altitude 10° 17:09:13 10° 100° (E) 1,920 8.6 22.3°
Sets 17:12:10 0° 86° (E) 3,072 9.6 21.7°
